This demonstration page uses our WeatherBlox Daily Observations layout. Learn more.

Left ArrowRight Arrow

39.29038, -76.61219

Hourly Observations for May 2, 2017

Temp ( °F °C ) Dew Point ( °F °C ) Humidity (%) Winds ( mph kmh ) Pressure ( in mb ) Visibility ( mi km ) Precip ( " mm )
12:54 am 00:54 undefined 78 25.6 62 16.7 58 58 undefined N/A 29.62 1003 N/A 0.00 0.00
1:54 am 01:54 undefined 77 25 63 17.2 62 62 undefined N/A 29.62 1003 N/A 0.00 0.00
2:54 am 02:54 undefined 75 23.9 63 17.2 66 66 undefined N/A 29.60 1002 N/A 0.00 0.00
3:54 am 03:54 undefined 74 23.3 63 17.2 69 69 undefined N/A 29.60 1002 N/A 0.00 0.00
4:54 am 04:54 undefined 73 22.8 63 17.2 71 71 undefined N/A 29.61 1003 N/A 0.00 0.00
5:54 am 05:54 undefined 71 21.7 52 11.1 51 51 undefined N/A 29.63 1003 N/A 0.00 0.00
6:54 am 06:54 undefined 70 21.1 53 11.7 55 55 undefined N/A 29.65 1004 N/A 0.00 0.00
7:54 am 07:54 undefined 70 21.1 53 11.7 55 55 undefined N/A 29.66 1005 N/A 0.00 0.00
8:54 am 08:54 undefined 71 21.7 50 10 47 47 undefined N/A 29.67 1005 N/A 0.00 0.00
9:54 am 09:54 undefined 70 21.1 48 8.9 46 46 undefined N/A 29.68 1005 N/A 0.00 0.00
10:54 am 10:54 undefined 71 21.7 48 8.9 44 44 undefined N/A 29.70 1006 N/A 0.00 0.00
11:54 am 11:54 undefined 72 22.2 46 7.8 40 40 undefined N/A 29.70 1006 N/A 0.00 0.00
12:54 pm 12:54 undefined 75 23.9 45 7.2 34 34 undefined N/A 29.69 1005 N/A 0.00 0.00
1:54 pm 13:54 undefined 75 23.9 36 2.2 24 24 undefined N/A 29.69 1006 N/A 0.00 0.00
2:54 pm 14:54 undefined 76 24.4 35 1.7 23 23 undefined N/A 29.70 1006 N/A 0.00 0.00
3:54 pm 15:54 undefined 77 25 36 2.2 23 23 undefined N/A 29.68 1005 N/A 0.00 0.00
4:54 pm 16:54 undefined 76 24.4 36 2.2 23 23 undefined N/A 29.68 1005 N/A 0.00 0.00
5:54 pm 17:54 undefined 77 25 33 0.6 20 20 undefined N/A 29.71 1006 N/A 0.00 0.00
6:54 pm 18:54 undefined 74 23.3 33 0.6 22 22 undefined N/A 29.73 1007 N/A 0.00 0.00
7:54 pm 19:54 undefined 72 22.2 33 0.6 24 24 undefined N/A 29.77 1008 N/A 0.00 0.00
8:54 pm 20:54 undefined 71 21.7 32 0 24 24 undefined N/A 29.79 1009 N/A 0.00 0.00
9:54 pm 21:54 undefined 70 21.1 33 0.6 26 26 undefined N/A 29.82 1010 N/A 0.00 0.00
10:54 pm 22:54 undefined 68 20 35 1.7 30 30 undefined N/A 29.83 1010 N/A 0.00 0.00
11:54 pm 23:54 undefined 67 19.4 35 1.7 31 31 undefined N/A 29.83 1010 N/A 0.00 0.00

Powered by AerisWeather